Погода в Мератхе

Индия     28°59′49″N   77°41′56″E
темп.,
°C
ветер,
м/с
пор.,
м/с
влажн.,
%
обл.,
%
осадки,
мм/ч
давл.,
гПа
погр.,
м
19 января, вт
вт1923:30+13с22654 0.0 101530
02:30+13ссз23646 0.0 101339
05:30+12ссз23673 0.0 101365
08:30+14зсз24648 0.0 1015129
11:30+21сз34404 0.0 1015499
14:30+25зсз45360 0.0 10111378
17:30+21зсз48480 0.0 1011342
20:30+17сз48560 0.0 1013224
20 января, ср
ср2023:30+15сз36540 0.0 1013161
02:30+13зсз49580 0.0 1012218
05:30+12зсз48660 0.0 1011189
08:30+13зсз49600 0.0 1014294
11:30+20зсз58380 0.0 1014579
14:30+23зсз69270 0.0 10111182
17:30+19зсз510350 0.0 1011478
20:30+16зсз412380 0.0 1012360
21 января, чт
чт2123:30+14зсз410410 0.0 1013262
02:30+13зсз411420 0.0 1012272
05:30+12сз410420 0.0 1011267
08:30+12сз410420 0.0 1013297
11:30+19зсз47280 0.0 1013564
14:30+23зсз69220 0.0 10111029
17:30+19зсз38310 0.0 1011310
20:30+15сз24370 0.0 101399
22 января, пт
пт2223:30+14зсз23380 0.0 101463
02:30+12зсз22420 0.0 101452
05:30+11сз12440 0.0 101347
08:30+13св11420 0.0 101557
11:30+20ююз11260 0.0 1015442
14:30+23з12190 0.0 1012879
17:30+20ююз12270 0.0 101124
20:30+16ю11310 0.0 101423
23 января, сб
сб2323:30+15юв12350 0.0 101423
02:30+13в23400 0.0 101364
05:30+12вюв34420 0.0 101293
08:30+13юв36440 0.0 1013188
11:30+20юв58340 0.0 1013562
14:30+23юв68300 0.0 1009858
17:30+20юв49430 0.0 1008431
20:30+17вюв512490 0.0 1010327